Location: Lake Lucerne
(45.5315°N, 88.8489°W)
Time: 01:46:37
(UTC-05:00)

Amateur Radio Satellites - All Passes

Search period start: 25 May 2017 01:16
Search period end: 26 May 2017 01:16
Location: Lake Lucerne, 45.5315°N, 88.8489°W

Satellite Date Start Highest point End Downlink Frequencies (MHz)
Time Altitude Azimuth
Oscar 19 25 May 01:19:45 01:23:07 17° 90° (E) 01:26:27 437.125/150
FO-29 25 May 01:19:53 01:23:14 15° 304° (NW) 01:26:44 435.910
YUBILEINY 25 May 01:27:10 01:35:40 61° 92° (E) 01:44:15 435.215
VELOX 1 25 May 01:32:08 01:35:24 20° 267° (W) 01:38:42 145.980
NANOSAT C BR1 25 May 01:37:22 01:41:17 37° 291° (WNW) 01:45:12 145.865
AIST 2D 25 May 01:37:52 01:39:37 13° 296° (WNW) 01:41:23 435.315
50 SAT 25 May 01:38:56 01:41:37 21° 265° (W) 01:44:20 437.505
POLYITAN 1 25 May 01:40:05 01:43:54 32° 292° (WNW) 01:47:44 437.675
Tancredo 1 25 May 01:40:36 01:43:27 32° 15° (NNE) 01:46:16 437.200
SPROUT 25 May 01:42:13 01:44:44 15° 269° (W) 01:47:17 437.525
QB50P2 25 May 01:48:53 01:52:23 25° 294° (WNW) 01:55:53 145.880/145.840
DUCHIFAT 1 25 May 01:49:18 01:53:04 31° 292° (WNW) 01:56:48 145.980
ISS 25 May 01:52:50 01:55:52 33° 13° (NNE) 01:58:53 437.550
ITUPSAT 1 25 May 01:59:18 02:03:04 24° 63° (ENE) 02:06:52 437.325
RS-15 25 May 02:04:59 02:16:05 45° 109° (ESE) 02:27:25 29.354- 29.394
UKube-1 25 May 02:09:43 02:13:28 29° 264° (W) 02:17:13 .
DX 1 25 May 02:14:12 02:17:20 19° 267° (W) 02:20:28 434.975-435.025
BUGSAT 1 25 May 02:15:07 02:19:06 49° 288° (WNW) 02:23:07 437.445
Gurwin Techsat 1B 25 May 02:20:00 02:24:55 37° 97° (E) 02:29:49 435.225
EO-79 25 May 02:28:11 02:29:56 12° 300° (WNW) 02:31:41 145.935-145.965
BEESAT 25 May 02:33:12 02:37:45 48° 70° (ENE) 02:42:21 436.000
MOZHAYETS 4 25 May 02:33:14 02:37:04 27° 66° (ENE) 02:40:55
Oscar 19 25 May 02:57:46 03:02:55 66° 288° (WNW) 03:08:00 437.125/150
PCSat 25 May 03:01:11 03:04:50 18° 35° (NE) 03:08:28 145.827
CUBESAT XI-V 25 May 03:15:31 03:18:10 15° 60° (ENE) 03:20:50 437.345
Tancredo 1 25 May 03:16:19 03:19:20 58° 214° (SW) 03:22:22 437.200
AO-7 25 May 03:18:04 03:24:29 24° 92° (E) 03:30:52 .
YUBILEINY 25 May 03:25:19 03:33:00 34° 293° (WNW) 03:40:47 435.215
ISS 25 May 03:29:18 03:32:34 70° 212° (SSW) 03:35:49 437.550
ITUPSAT 1 25 May 03:36:05 03:40:39 44° 261° (W) 03:45:14 437.325
KKS-1 25 May 03:40:38 03:43:59 21° 64° (ENE) 03:47:21 437.445
O/OREOS (USA 219) 25 May 03:46:57 03:50:20 20° 101° (ESE) 03:53:43 437.305
ITAMSAT 1 25 May 03:55:13 04:00:06 39° 98° (E) 04:04:58 435.822/435.867
Gurwin Techsat 1B 25 May 04:00:05 04:04:48 33° 295° (WNW) 04:09:29 435.225
MOZHAYETS 4 25 May 04:09:49 04:14:04 36° 263° (W) 04:18:21
BEESAT 25 May 04:12:13 04:15:47 21° 268° (W) 04:19:22 436.000
RS-15 25 May 04:16:01 04:28:09 66° 313° (NW) 04:40:31 29.354- 29.394
STARS 25 May 04:16:47 04:20:07 22° 64° (ENE) 04:23:28 437.465
AO-85 25 May 04:37:40 04:40:45 20° 114° (ESE) 04:43:43 145.980
Oscar 19 25 May 04:40:13 04:41:14 11° 307° (NW) 04:42:15 437.125/150
PCSat 25 May 04:43:42 04:49:11 75° 56° (ENE) 04:54:36 145.827
CUBESAT XI-V 25 May 04:50:15 04:54:57 74° 257° (WSW) 04:59:41 437.345
ISS 25 May 05:07:47 05:08:31 11° 229° (SW) 05:09:15 437.550
AO-7 25 May 05:09:45 05:18:08 82° 291° (WNW) 05:26:30 .
BEESAT 3 25 May 05:12:51 05:15:02 14° 110° (ESE) 05:17:14 437.485
KKS-1 25 May 05:16:03 05:20:17 43° 261° (W) 05:24:31 437.445
O/OREOS (USA 219) 25 May 05:24:58 05:29:24 47° 299° (WNW) 05:33:51 437.305
ITAMSAT 1 25 May 05:34:56 05:39:26 30° 296° (WNW) 05:43:56 435.822/435.867
SO-50 25 May 05:47:58 05:50:38 15° 31° (NNE) 05:53:18 436.795
STARS 25 May 05:52:07 05:56:13 40° 261° (W) 06:00:22 437.465
XW-2D 25 May 05:56:11 05:57:23 11° 89° (E) 05:58:36 145.860 - 145.880
XW-2B 25 May 06:03:27 06:05:22 13° 90° (E) 06:07:16 145.730 - 145.750
XW-2C 25 May 06:16:18 06:19:05 19° 93° (E) 06:21:52 145.795 - 145.815
XW-2F 25 May 06:16:42 06:19:24 18° 92° (E) 06:22:05 145.980 - 146.000
AO-85 25 May 06:16:55 06:20:52 44° 311° (NW) 06:24:41 145.980
NUDT-PHONESAT 25 May 06:21:23 06:23:50 16° 92° (E) 06:26:17 437.300
BEESAT 2 25 May 06:24:34 06:28:01 29° 116° (ESE) 06:31:34 435.950
KAITUO 1B 25 May 06:27:10 06:29:59 19° 93° (E) 06:32:47 145.475/437.950
PCSat 25 May 06:28:26 06:31:56 18° 255° (WSW) 06:35:25 145.827
RS-15 25 May 06:32:44 06:43:35 34° 344° (NNW) 06:54:24 29.354- 29.394
HO-68 25 May 06:44:24 06:47:19 13° 85° (E) 06:50:12 435.675
BEESAT 3 25 May 06:48:12 06:52:08 62° 309° (NW) 06:56:07 437.485
DOVE 4 25 May 06:48:28 06:52:38 78° 101° (E) 06:56:52 437.250
LilacSat-2 25 May 06:51:42 06:55:31 50° 99° (E) 06:59:16 437.200
AO-7 25 May 07:03:43 07:09:45 23° 313° (NW) 07:15:47 .
M-CUBED/EXP-1 PRIME 25 May 07:03:53 07:06:47 19° 60° (ENE) 07:09:34 437.505
STRAND 1 25 May 07:08:01 07:13:01 62° 72° (ENE) 07:18:05 437.568
CUTE-I 25 May 07:16:57 07:22:17 68° 102° (ESE) 07:27:37 437.470
XW-2A 25 May 07:20:05 07:20:35 10° 90° (E) 07:21:04 145.665 - 145.685
SO-50 25 May 07:27:25 07:31:56 69° 52° (NE) 07:36:26 436.795
XW-2D 25 May 07:28:09 07:31:59 61° 286° (WNW) 07:35:46 145.860 - 145.880
XW-2B 25 May 07:36:07 07:39:52 51° 287° (WNW) 07:43:36 145.730 - 145.750
CUTE 1.7 + AOD 2 25 May 07:49:35 07:53:25 31° 96° (E) 07:57:13 437.475
XW-2C 25 May 07:49:51 07:53:24 35° 290° (WNW) 07:56:55 145.795 - 145.815
XW-2F 25 May 07:50:06 07:53:40 36° 289° (WNW) 07:57:12 145.980 - 146.000
NUDT-PHONESAT 25 May 07:54:22 07:57:55 39° 289° (WNW) 08:01:25 437.300
KAITUO 1B 25 May 08:00:37 08:04:04 33° 290° (WNW) 08:07:30 145.475/437.950
BEESAT 2 25 May 08:02:07 08:05:44 32° 315° (NW) 08:09:25 435.950
CUBEBUG 2 25 May 08:09:58 08:13:53 28° 95° (E) 08:17:53 437.445
AAUSAT CUBESAT 2 25 May 08:12:04 08:14:50 17° 91° (E) 08:17:35 437.432
UWE-3 25 May 08:23:59 08:27:42 24° 94° (E) 08:31:28 435.000/436.395/437.385
PRISM 25 May 08:25:55 08:27:20 12° 59° (ENE) 08:28:45 437.425
LilacSat-2 25 May 08:27:08 08:29:23 15° 297° (WNW) 08:31:38 437.200
DOVE 4 25 May 08:28:28 08:29:46 11° 300° (WNW) 08:31:04 437.250
BEESAT 3 25 May 08:28:53 08:30:32 12° 329° (NNW) 08:32:12 437.485
HO-68 25 May 08:29:05 08:36:19 70° 104° (ESE) 08:43:29 435.675
NO-84 25 May 08:33:13 08:36:06 17° 127° (SE) 08:38:56 435.350 FM
M-CUBED/EXP-1 PRIME 25 May 08:36:51 08:40:58 47° 254° (WSW) 08:44:50 437.505
SEEDS 25 May 08:41:48 08:46:03 75° 103° (ESE) 08:50:13 437.485
STRAND 1 25 May 08:49:14 08:52:38 18° 269° (W) 08:56:04 437.568
RS-15 25 May 08:49:45 09:00:45 35° 19° (NNE) 09:11:25 29.354- 29.394
XW-2A 25 May 08:50:16 08:53:38 52° 286° (WNW) 08:57:00 145.665 - 145.685
TIGRISAT 25 May 08:51:52 08:54:24 16° 61° (ENE) 08:56:58 435.000
CUTE-I 25 May 08:58:06 09:01:48 20° 301° (WNW) 09:05:31 437.470
Oscar 11 25 May 09:03:28 09:07:05 25° 94° (E) 09:10:39 .
SO-50 25 May 09:09:10 09:11:51 16° 250° (WSW) 09:14:33 436.795
UNISAT 6 25 May 09:21:35 09:25:22 32° 68° (ENE) 09:29:14 437.425
CUTE 1.7 + AOD 2 25 May 09:25:35 09:29:08 26° 293° (WNW) 09:32:41 437.475
AO-73 25 May 09:27:32 09:32:00 56° 100° (E) 09:36:29 145.935
ZACube-1 25 May 09:40:31 09:45:05 83° 106° (ESE) 09:49:40 437.345
CUBEBUG 2 25 May 09:46:25 09:50:31 34° 291° (WNW) 09:54:41 437.445
AAUSAT CUBESAT 2 25 May 09:46:35 09:50:32 44° 289° (WNW) 09:54:27 437.432
FO-29 25 May 09:48:17 09:53:22 61° 71° (ENE) 09:58:37 435.910
PRISM 25 May 09:57:52 10:02:00 80° 257° (WSW) 10:06:10 437.425
UWE-3 25 May 10:00:01 10:04:15 39° 290° (WNW) 10:08:32 435.000/436.395/437.385
NO-84 25 May 10:08:55 10:13:18 89° 332° (NNW) 10:17:29 435.350 FM
HO-68 25 May 10:17:37 10:23:27 28° 304° (NW) 10:29:17 435.675
SEEDS 25 May 10:19:21 10:21:07 12° 300° (WNW) 10:22:53 437.485
DELFI C3 25 May 10:19:37 10:23:24 43° 99° (E) 10:27:09 145.870
TIGRISAT 25 May 10:26:25 10:30:37 59° 260° (W) 10:34:55 435.000
Oscar 11 25 May 10:39:19 10:43:16 34° 291° (WNW) 10:47:12 .
AIST 2D 25 May 10:40:01 10:42:54 24° 69° (ENE) 10:45:50 435.315
EO-88 25 May 10:45:53 10:49:33 65° 100° (E) 10:53:13 145.990 - 145.960
NANOSAT C BR1 25 May 10:56:27 10:59:39 22° 65° (ENE) 11:02:52 145.865
UNISAT 6 25 May 10:58:32 11:02:07 26° 266° (W) 11:05:46 437.425
POLYITAN 1 25 May 10:59:14 11:02:40 25° 66° (ENE) 11:06:08 437.675
RS-15 25 May 11:03:31 11:15:51 72° 49° (NE) 11:27:35 29.354- 29.394
AO-73 25 May 11:04:45 11:07:50 18° 297° (WNW) 11:10:54 145.935
QB50P2 25 May 11:07:26 11:11:11 33° 69° (ENE) 11:14:58 145.880/145.840
DUCHIFAT 1 25 May 11:07:44 11:11:09 25° 66° (ENE) 11:14:36 145.980
ZACube-1 25 May 11:18:40 11:20:42 13° 300° (WNW) 11:22:46 437.345
BUGSAT 1 25 May 11:33:13 11:35:34 15° 62° (ENE) 11:37:56 437.445
LO-87 25 May 11:34:20 11:37:34 31° 97° (E) 11:40:45 145.935 - 145.965
YUBILEINY 25 May 11:34:34 11:42:27 34° 67° (ENE) 11:50:17 435.215
FO-29 25 May 11:35:41 11:39:03 17° 271° (W) 11:42:29 435.910
EO-79 25 May 11:44:38 11:48:48 75° 75° (ENE) 11:53:01 145.935-145.965
NO-84 25 May 11:47:36 11:51:20 28° 342° (NNW) 11:54:51 435.350 FM
DELFI C3 25 May 11:55:16 11:57:51 17° 296° (WNW) 12:00:25 145.870
Gurwin Techsat 1B 25 May 12:07:26 12:09:25 12° 54° (NE) 12:11:24 435.225
AIST 2D 25 May 12:13:14 12:16:04 22° 266° (W) 12:18:56 435.315
ESTCUBE 1 25 May 12:16:08 12:20:36 54° 101° (E) 12:24:59 437.505/2401.250
EO-88 25 May 12:21:39 12:22:43 11° 298° (WNW) 12:23:48 145.990 - 145.960
NANOSAT C BR1 25 May 12:31:16 12:35:09 37° 262° (W) 12:39:04 145.865
AO-7 25 May 12:33:36 12:36:16 12° 35° (NE) 12:38:57 .
POLYITAN 1 25 May 12:34:35 12:38:20 32° 264° (W) 12:42:08 437.675
Oscar 19 25 May 12:38:14 12:42:48 32° 65° (ENE) 12:47:25 437.125/150
DUCHIFAT 1 25 May 12:43:00 12:46:43 31° 264° (W) 12:50:28 145.980
QB50P2 25 May 12:43:35 12:47:01 24° 266° (W) 12:50:29 145.880/145.840
50 SAT 25 May 12:59:28 13:01:55 18° 94° (E) 13:04:21 437.505
AO-85 25 May 13:05:18 13:09:00 35° 47° (NE) 13:12:50 145.980
BUGSAT 1 25 May 13:06:38 13:10:32 52° 260° (W) 13:14:28 437.445
LO-87 25 May 13:08:17 13:10:48 18° 294° (WNW) 13:13:18 145.935 - 145.965
RS-15 25 May 13:16:49 13:27:31 39° 254° (WSW) 13:37:47 29.354- 29.394
VELOX 1 25 May 13:18:16 13:22:38 64° 101° (ESE) 13:26:58 145.980
SPROUT 25 May 13:23:17 13:27:35 76° 104° (ESE) 13:31:51 437.525
EO-79 25 May 13:24:10 13:25:05 11° 272° (W) 13:26:00 145.935-145.965
BEESAT 3 25 May 13:25:52 13:29:04 22° 40° (NE) 13:32:14 437.485
NO-84 25 May 13:26:44 13:29:53 21° 3° (N) 13:32:52 435.350 FM
YUBILEINY 25 May 13:31:07 13:39:45 60° 269° (W) 13:48:22 435.215
ITAMSAT 1 25 May 13:39:51 13:41:51 12° 54° (NE) 13:43:50 435.822/435.867
Gurwin Techsat 1B 25 May 13:43:09 13:48:26 73° 73° (ENE) 13:53:45 435.225
O/OREOS (USA 219) 25 May 13:53:25 13:57:53 57° 63° (ENE) 14:02:19 437.305
UKube-1 25 May 13:53:46 13:57:47 37° 98° (E) 14:01:46 .
ESTCUBE 1 25 May 13:53:55 13:56:59 18° 298° (WNW) 14:00:02 437.505/2401.250
DX 1 25 May 13:58:26 14:02:43 61° 101° (ESE) 14:06:59 434.975-435.025
Oscar 19 25 May 14:17:17 14:22:03 36° 263° (W) 14:26:51 437.125/150
AO-7 25 May 14:19:14 14:26:50 42° 58° (ENE) 14:34:28 .
50 SAT 25 May 14:31:53 14:34:49 27° 291° (WNW) 14:37:45 437.505
BEESAT 2 25 May 14:39:39 14:43:30 39° 47° (NE) 14:47:19 435.950
AO-85 25 May 14:45:50 14:49:16 27° 244° (WSW) 14:52:50 145.980
VELOX 1 25 May 14:56:03 14:58:35 15° 300° (WNW) 15:01:08 145.980
SPROUT 25 May 15:01:03 15:02:54 13° 300° (WNW) 15:04:45 437.525
BEESAT 3 25 May 15:03:00 15:06:55 50° 240° (WSW) 15:10:46 437.485
NO-84 25 May 15:04:39 15:08:20 37° 25° (NNE) 15:11:41 435.350 FM
ITAMSAT 1 25 May 15:15:17 15:20:25 76° 73° (ENE) 15:25:37 435.822/435.867
Gurwin Techsat 1B 25 May 15:25:42 15:28:56 16° 271° (W) 15:32:11 435.225
UKube-1 25 May 15:30:12 15:33:37 23° 295° (WNW) 15:37:00 .
YUBILEINY 25 May 15:31:57 15:34:32 12° 290° (WNW) 15:37:09 435.215
O/OREOS (USA 219) 25 May 15:34:01 15:36:48 16° 261° (W) 15:39:34 437.305
ITUPSAT 1 25 May 15:34:01 15:38:32 38° 98° (E) 15:43:01 437.325
DX 1 25 May 15:35:52 15:38:26 16° 299° (WNW) 15:41:01 434.975-435.025
MOZHAYETS 4 25 May 16:02:03 16:06:30 44° 98° (E) 16:10:55
BEESAT 25 May 16:08:17 16:13:07 84° 104° (ESE) 16:17:55 436.000
AO-7 25 May 16:11:27 16:19:27 52° 259° (WSW) 16:27:32 .
BEESAT 2 25 May 16:17:47 16:21:05 24° 246° (WSW) 16:24:20 435.950
DOVE 4 25 May 16:21:22 16:23:10 12° 61° (ENE) 16:24:57 437.250
NO-84 25 May 16:42:26 16:45:55 39° 225° (SW) 16:49:05 435.350 FM
CUBESAT XI-V 25 May 16:45:04 16:48:49 23° 93° (E) 16:52:31 437.345
ITAMSAT 1 25 May 16:57:35 17:00:28 15° 271° (W) 17:03:22 435.822/435.867
XW-2C 25 May 17:00:35 17:02:34 14° 63° (ENE) 17:04:35 145.795 - 145.815
XW-2F 25 May 17:00:40 17:02:31 13° 62° (ENE) 17:04:22 145.980 - 146.000
CUTE-I 25 May 17:02:57 17:06:51 21° 60° (ENE) 17:10:47 437.470
NUDT-PHONESAT 25 May 17:04:12 17:05:26 11° 62° (ENE) 17:06:41 437.300
KKS-1 25 May 17:04:38 17:08:31 29° 96° (E) 17:12:21 437.445
KAITUO 1B 25 May 17:10:11 17:12:09 14° 63° (ENE) 17:14:08 145.475/437.950
ITUPSAT 1 25 May 17:12:10 17:16:12 27° 295° (WNW) 17:20:13 437.325
HO-68 25 May 17:16:23 17:20:13 15° 47° (NE) 17:24:04 435.675
LilacSat-2 25 May 17:35:34 17:39:02 33° 70° (ENE) 17:42:33 437.200
STARS 25 May 17:39:01 17:42:51 29° 96° (E) 17:46:39 437.465
MOZHAYETS 4 25 May 17:39:45 17:43:23 23° 296° (WNW) 17:47:00
BEESAT 25 May 17:47:48 17:50:14 14° 302° (WNW) 17:52:40 436.000
DOVE 4 25 May 17:55:41 18:00:19 82° 255° (WSW) 18:04:44 437.250
XW-2D 25 May 18:10:58 18:14:46 86° 76° (ENE) 18:18:38 145.860 - 145.880
XW-2B 25 May 18:18:54 18:22:42 80° 258° (WSW) 18:26:34 145.730 - 145.750
CUBESAT XI-V 25 May 18:21:58 18:26:20 40° 291° (WNW) 18:30:39 437.345
XW-2F 25 May 18:32:28 18:36:11 56° 259° (W) 18:39:58 145.980 - 146.000
XW-2C 25 May 18:32:37 18:36:20 53° 261° (W) 18:40:07 145.795 - 145.815
NUDT-PHONESAT 25 May 18:35:08 18:38:49 64° 259° (W) 18:42:33 437.300
KKS-1 25 May 18:41:09 18:45:02 31° 293° (WNW) 18:48:55 437.445
CUTE-I 25 May 18:41:13 18:46:28 61° 258° (WSW) 18:51:44 437.470
KAITUO 1B 25 May 18:42:04 18:45:44 52° 260° (W) 18:49:28 145.475/437.950
CUTE 1.7 + AOD 2 25 May 18:44:10 18:47:55 30° 68° (ENE) 18:51:40 437.475
HO-68 25 May 18:59:33 19:06:37 65° 68° (ENE) 19:13:44 435.675
AAUSAT CUBESAT 2 25 May 19:04:33 19:07:12 17° 63° (ENE) 19:09:52 437.432
CUBEBUG 2 25 May 19:10:29 19:14:01 27° 67° (ENE) 19:17:37 437.445
LilacSat-2 25 May 19:10:34 19:13:25 20° 267° (W) 19:16:18 437.200
STARS 25 May 19:15:19 19:19:09 30° 293° (WNW) 19:22:58 437.465
STRAND 1 25 May 19:17:11 19:20:38 18° 90° (E) 19:24:05 437.568
XW-2A 25 May 19:23:15 19:26:34 67° 75° (ENE) 19:29:56 145.665 - 145.685
UWE-3 25 May 19:23:23 19:26:45 24° 66° (ENE) 19:30:10 435.000/436.395/437.385
PCSat 25 May 19:27:33 19:32:38 43° 114° (ESE) 19:37:45 145.827
SEEDS 25 May 19:35:02 19:39:15 67° 74° (ENE) 19:43:30 437.485
Oscar 11 25 May 20:00:20 20:03:54 25° 66° (ENE) 20:07:29 .
ISS 25 May 20:13:28 20:13:58 10° 131° (SE) 20:14:28 437.550
CUTE 1.7 + AOD 2 25 May 20:20:02 20:23:43 27° 265° (W) 20:27:25 437.475
AO-73 25 May 20:24:56 20:29:02 53° 73° (ENE) 20:33:16 145.935
AAUSAT CUBESAT 2 25 May 20:38:10 20:42:16 52° 260° (W) 20:46:23 437.432
ZACube-1 25 May 20:38:11 20:42:23 82° 75° (ENE) 20:46:43 437.345
CUBEBUG 2 25 May 20:46:59 20:50:35 28° 265° (W) 20:54:17 437.445
HO-68 25 May 20:48:56 20:54:50 27° 267° (W) 21:00:47 435.675
STRAND 1 25 May 20:55:10 21:00:15 63° 288° (WNW) 21:05:20 437.568
UWE-3 25 May 20:59:13 21:03:02 34° 264° (W) 21:06:58 435.000/436.395/437.385
DELFI C3 25 May 21:06:55 21:10:32 34° 70° (ENE) 21:14:09 145.870
PCSat 25 May 21:11:11 21:16:08 35° 313° (NW) 21:21:07 145.827
SEEDS 25 May 21:13:35 21:15:23 12° 271° (W) 21:17:11 437.485
Tancredo 1 25 May 21:25:14 21:28:17 66° 148° (SSE) 21:31:21 437.200
EO-88 25 May 21:25:36 21:28:59 37° 71° (ENE) 21:32:25 145.990 - 145.960
Oscar 11 25 May 21:35:57 21:39:54 34° 264° (W) 21:43:52 .
PRISM 25 May 21:39:02 21:40:23 11° 89° (E) 21:41:46 437.425
SO-50 25 May 21:46:24 21:48:15 12° 108° (ESE) 21:50:05 436.795
ISS 25 May 21:46:38 21:49:54 68° 148° (SSE) 21:53:12 437.550
M-CUBED/EXP-1 PRIME 25 May 21:47:36 21:50:57 83° 106° (ESE) 21:54:11 437.505
AO-73 25 May 22:03:09 22:05:38 15° 270° (W) 22:08:10 145.935
LO-87 25 May 22:13:03 22:15:36 19° 67° (ENE) 22:18:11 145.935 - 145.965
TIGRISAT 25 May 22:15:36 22:19:23 25° 94° (E) 22:23:12 435.000
FO-29 25 May 22:37:46 22:43:54 49° 99° (E) 22:50:47 435.910
STRAND 1 25 May 22:37:58 22:38:26 10° 307° (NW) 22:38:54 437.568
DELFI C3 25 May 22:42:19 22:45:23 21° 267° (W) 22:48:27 145.870
UNISAT 6 25 May 22:46:33 22:51:03 53° 100° (E) 22:55:37 437.425
PCSat 25 May 23:00:03 23:01:14 11° 337° (NNW) 23:02:26 145.827
EO-88 25 May 23:00:30 23:02:50 16° 268° (W) 23:05:10 145.990 - 145.960
Tancredo 1 25 May 23:01:26 23:04:14 31° 347° (NNW) 23:07:03 437.200
PRISM 25 May 23:12:04 23:16:08 66° 286° (WNW) 23:20:08 437.425
ESTCUBE 1 25 May 23:17:23 23:21:53 65° 73° (ENE) 23:26:24 437.505/2401.250
SO-50 25 May 23:23:27 23:28:01 87° 299° (WNW) 23:32:36 436.795
ISS 25 May 23:23:33 23:26:36 33° 347° (NNW) 23:29:38 437.550
EO-79 25 May 23:29:48 23:30:27 10° 88° (E) 23:31:06 145.935-145.965
50 SAT 25 May 23:35:18 23:36:28 11° 62° (ENE) 23:37:38 437.505
AIST 2D 25 May 23:35:43 23:38:33 22° 94° (E) 23:41:23 435.315
LO-87 25 May 23:45:42 23:48:52 30° 263° (W) 23:52:02 145.935 - 145.965
TIGRISAT 25 May 23:51:55 23:56:09 38° 291° (WNW) 00:00:27 435.000
NANOSAT C BR1 26 May 00:13:06 00:16:46 28° 95° (E) 00:20:25 145.865
POLYITAN 1 26 May 00:16:37 00:20:30 33° 97° (E) 00:24:24 437.675
VELOX 1 26 May 00:17:14 00:21:38 74° 75° (ENE) 00:26:03 145.980
SPROUT 26 May 00:18:22 00:22:35 75° 74° (ENE) 00:26:50 437.525
FO-29 26 May 00:23:16 00:28:49 34° 295° (WNW) 00:34:58 435.910
UNISAT 6 26 May 00:24:09 00:27:23 19° 297° (WNW) 00:30:39 437.425
DUCHIFAT 1 26 May 00:24:11 00:28:01 32° 97° (E) 00:31:50 145.980
QB50P2 26 May 00:25:05 00:29:12 44° 99° (E) 00:33:17 145.880/145.840
Tancredo 1 26 May 00:37:53 00:40:33 26° 7° (N) 00:43:13 437.200
YUBILEINY 26 May 00:38:59 00:46:33 35° 84° (E) 00:54:11 435.215
BUGSAT 1 26 May 00:46:32 00:49:26 18° 93° (E) 00:52:20 437.445
UKube-1 26 May 00:50:02 00:54:07 42° 69° (ENE) 00:58:11 .
DX 1 26 May 00:55:41 01:00:00 70° 74° (ENE) 01:04:20 434.975-435.025
ESTCUBE 1 26 May 00:56:40 00:59:07 14° 271° (W) 01:01:35 437.505/2401.250
ISS 26 May 01:00:45 01:03:40 28° 7° (N) 01:06:35 437.550
EO-79 26 May 01:02:29 01:06:45 79° 285° (WNW) 01:11:01 145.935-145.965
50 SAT 26 May 01:05:31 01:08:54 53° 259° (W) 01:12:18 437.505
SO-50 26 May 01:06:03 01:09:09 18° 326° (NW) 01:12:15 436.795
AIST 2D 26 May 01:08:44 01:11:44 26° 291° (WNW) 01:14:44 435.315
